When you browse on this site, cookies collect data to enhance your experience and personalize the content and advertising you see.
Visit our Privacy Policy to learn more. By continuing to use the site, you agree to this use of cookies and data.
  • în România
  • Lista ţărilor
  • Pe 7 zile
  • Temperatura apei
  • Hartă satelitară
  • Meteo pe hartă
  • Widget-uri
  • user-avatar
    Intrare

    Meteo pe oră la Zastruze

    Astăzi, 19 Mai, Duminică

    Timp Temperatura Precipitaţii Vânt Presiune Umiditate
    00:00 +13°C° 0 mm 1 m/s 740 mmHg 85%
    01:00 +13°C° 0 mm 1 m/s 739 mmHg 86%
    02:00 +13°C° 0.2 mm 1 m/s 739 mmHg 86%
    03:00 +12°C° 0.2 mm 1 m/s 739 mmHg 87%
    04:00 +12°C° 0.2 mm 1 m/s 739 mmHg 87%
    05:00 +14°C° 0 mm 1 m/s 739 mmHg 83%
    06:00 +15°C° 0 mm 1 m/s 739 mmHg 79%
    07:00 +18°C° 0 mm 1 m/s 739 mmHg 74%
    08:00 +20°C° 0 mm 1 m/s 739 mmHg 70%
    09:00 +20°C° 0 mm 2 m/s 738 mmHg 66%
    10:00 +21°C° 0 mm 2 m/s 738 mmHg 63%
    11:00 +23°C° 0 mm 2 m/s 738 mmHg 60%
    12:00 +24°C° 0 mm 2 m/s 738 mmHg 58%
    13:00 +25°C° 0 mm 2 m/s 738 mmHg 55%
    14:00 +25°C° 0.2 mm 3 m/s 737 mmHg 58%
    15:00 +24°C° 0.2 mm 3 m/s 737 mmHg 60%
    16:00 +24°C° 0.2 mm 3 m/s 737 mmHg 63%
    17:00 +23°C° 0.3 mm 2 m/s 736 mmHg 68%
    18:00 +22°C° 0.3 mm 1 m/s 736 mmHg 73%
    19:00 +20°C° 0.3 mm 1 m/s 736 mmHg 77%
    20:00 +19°C° 0.2 mm 1 m/s 736 mmHg 80%
    21:00 +18°C° 0.2 mm 1 m/s 736 mmHg 83%
    22:00 +16°C° 0.2 mm 1 m/s 737 mmHg 85%
    23:00 +15°C° 0.1 mm 1 m/s 736 mmHg 86%

    Mâine, 20 Mai, Luni

    Timp Temperatura Precipitaţii Vânt Presiune Umiditate
    00:00 +15°C° 0.1 mm 1 m/s 736 mmHg 87%
    01:00 +14°C° 0.1 mm 1 m/s 736 mmHg 88%
    02:00 +14°C° 0 mm 1 m/s 736 mmHg 88%
    03:00 +13°C° 0 mm 1 m/s 736 mmHg 88%
    04:00 +13°C° 0 mm 1 m/s 735 mmHg 88%
    05:00 +14°C° 0 mm 1 m/s 735 mmHg 87%
    06:00 +15°C° 0 mm 1 m/s 735 mmHg 85%
    07:00 +16°C° 0 mm 1 m/s 735 mmHg 84%
    08:00 +18°C° 0.2 mm 1 m/s 735 mmHg 85%
    09:00 +18°C° 0.2 mm 1 m/s 735 mmHg 86%
    10:00 +18°C° 0.2 mm 1 m/s 735 mmHg 87%
    11:00 +18°C° 0 mm 2 m/s 735 mmHg 81%
    12:00 +20°C° 0 mm 2 m/s 735 mmHg 75%
    13:00 +21°C° 0 mm 3 m/s 735 mmHg 69%
    14:00 +21°C° 0.3 mm 3 m/s 735 mmHg 69%
    15:00 +21°C° 0.3 mm 3 m/s 735 mmHg 69%
    16:00 +21°C° 0.3 mm 3 m/s 735 mmHg 69%
    17:00 +20°C° 0.2 mm 3 m/s 735 mmHg 73%
    18:00 +19°C° 0.2 mm 2 m/s 735 mmHg 77%
    19:00 +18°C° 0.2 mm 2 m/s 735 mmHg 82%
    20:00 +17°C° 0 mm 2 m/s 736 mmHg 84%
    21:00 +15°C° 0 mm 2 m/s 736 mmHg 87%
    22:00 +14°C° 0 mm 2 m/s 736 mmHg 90%
    23:00 +13°C° 0 mm 2 m/s 736 mmHg 90%

    Poimâine, 21 Mai, Marţi

    Timp Temperatura Precipitaţii Vânt Presiune Umiditate
    00:00 +13°C° 0 mm 2 m/s 736 mmHg 91%
    01:00 +12°C° 0 mm 2 m/s 737 mmHg 92%
    02:00 +12°C° 0 mm 2 m/s 737 mmHg 92%
    03:00 +12°C° 0 mm 2 m/s 737 mmHg 92%
    04:00 +10°C° 0 mm 2 m/s 737 mmHg 92%
    05:00 +13°C° 0 mm 2 m/s 737 mmHg 88%
    06:00 +14°C° 0 mm 2 m/s 737 mmHg 84%
    07:00 +15°C° 0 mm 2 m/s 737 mmHg 80%
    08:00 +16°C° 0 mm 2 m/s 737 mmHg 75%
    09:00 +18°C° 0 mm 2 m/s 737 mmHg 70%
    10:00 +19°C° 0 mm 2 m/s 738 mmHg 65%
    11:00 +19°C° 0 mm 2 m/s 738 mmHg 63%
    12:00 +20°C° 0 mm 2 m/s 738 mmHg 62%
    13:00 +21°C° 0 mm 2 m/s 738 mmHg 60%
    14:00 +20°C° 0 mm 2 m/s 737 mmHg 63%
    15:00 +20°C° 0 mm 2 m/s 737 mmHg 65%
    16:00 +20°C° 0 mm 2 m/s 737 mmHg 67%
    17:00 +19°C° 0 mm 2 m/s 737 mmHg 73%
    18:00 +18°C° 0 mm 2 m/s 737 mmHg 78%
    19:00 +17°C° 0 mm 2 m/s 737 mmHg 83%
    20:00 +16°C° 0.6 mm 2 m/s 738 mmHg 85%
    21:00 +15°C° 0.6 mm 2 m/s 738 mmHg 88%
    22:00 +14°C° 0.6 mm 2 m/s 738 mmHg 90%
    23:00 +14°C° 0.1 mm 2 m/s 738 mmHg 90%

    22 Mai, Miercuri

    Timp Temperatura Precipitaţii Vânt Presiune Umiditate
    00:00 +14°C° 0.1 mm 2 m/s 738 mmHg 91%
    01:00 +13°C° 0.1 mm 2 m/s 738 mmHg 91%
    02:00 +14°C° 0 mm 2 m/s 738 mmHg 92%
    03:00 +14°C° 0 mm 2 m/s 739 mmHg 92%
    04:00 +14°C° 0 mm 2 m/s 739 mmHg 93%
    05:00 +14°C° 1.9 mm 2 m/s 739 mmHg 94%
    06:00 +14°C° 1.9 mm 2 m/s 739 mmHg 95%
    07:00 +15°C° 1.9 mm 2 m/s 739 mmHg 96%
    08:00 +15°C° 2.8 mm 2 m/s 739 mmHg 95%
    09:00 +13°C° 2.8 mm 3 m/s 739 mmHg 95%
    10:00 +13°C° 2.8 mm 3 m/s 740 mmHg 94%
    11:00 +14°C° 1.3 mm 4 m/s 740 mmHg 94%
    12:00 +14°C° 1.3 mm 5 m/s 740 mmHg 94%
    13:00 +14°C° 1.3 mm 6 m/s 740 mmHg 93%
    14:00 +14°C° 0.4 mm 6 m/s 740 mmHg 92%
    15:00 +14°C° 0.4 mm 7 m/s 741 mmHg 91%
    16:00 +12°C° 0.4 mm 8 m/s 741 mmHg 90%
    17:00 +12°C° 0.1 mm 7 m/s 741 mmHg 90%
    18:00 +13°C° 0.1 mm 6 m/s 741 mmHg 90%
    19:00 +11°C° 0.1 mm 6 m/s 741 mmHg 90%
    20:00 +13°C° 0.8 mm 5 m/s 742 mmHg 92%
    21:00 +13°C° 0.8 mm 5 m/s 742 mmHg 94%
    22:00 +13°C° 0.8 mm 5 m/s 742 mmHg 96%
    23:00 +13°C° 1 mm 5 m/s 742 mmHg 96%

    23 Mai, Joi

    Timp Temperatura Precipitaţii Vânt Presiune Umiditate
    00:00 +13°C° 1 mm 6 m/s 742 mmHg 96%
    01:00 +13°C° 1 mm 6 m/s 742 mmHg 96%
    02:00 +11°C° 1 mm 7 m/s 743 mmHg 95%
    03:00 +11°C° 1 mm 7 m/s 743 mmHg 95%
    04:00 +10°C° 1 mm 8 m/s 743 mmHg 95%
    05:00 +9°C° 1 mm 8 m/s 744 mmHg 94%
    06:00 +7°C° 1 mm 8 m/s 744 mmHg 94%
    07:00 +6°C° 1 mm 9 m/s 745 mmHg 93%
    08:00 +7°C° 0.2 mm 8 m/s 745 mmHg 91%
    09:00 +7°C° 0.2 mm 8 m/s 746 mmHg 88%
    10:00 +7°C° 0.2 mm 8 m/s 746 mmHg 85%
    11:00 +9°C° 0 mm 7 m/s 746 mmHg 83%
    12:00 +9°C° 0 mm 6 m/s 746 mmHg 80%
    13:00 +10°C° 0 mm 5 m/s 746 mmHg 77%
    14:00 +11°C° 0 mm 4 m/s 746 mmHg 77%
    15:00 +12°C° 0 mm 3 m/s 746 mmHg 76%
    16:00 +14°C° 0 mm 2 m/s 746 mmHg 75%
    17:00 +14°C° 0 mm 2 m/s 746 mmHg 76%
    18:00 +14°C° 0 mm 2 m/s 746 mmHg 76%
    19:00 +14°C° 0 mm 2 m/s 746 mmHg 77%
    20:00 +12°C° 0 mm 2 m/s 746 mmHg 79%
    21:00 +10°C° 0 mm 2 m/s 747 mmHg 82%
    22:00 +9°C° 0 mm 2 m/s 747 mmHg 84%
    23:00 +8°C° 0 mm 2 m/s 747 mmHg 85%

    24 Mai, Vineri

    Timp Temperatura Precipitaţii Vânt Presiune Umiditate
    00:00 +9°C° 0 mm 1 m/s 746 mmHg 86%
    01:00 +9°C° 0 mm 1 m/s 746 mmHg 87%
    02:00 +8°C° 0 mm 1 m/s 746 mmHg 88%
    03:00 +8°C° 0 mm 1 m/s 746 mmHg 89%
    04:00 +7°C° 0 mm 1 m/s 746 mmHg 90%
    05:00 +9°C° 0 mm 1 m/s 745 mmHg 84%
    06:00 +11°C° 0 mm 1 m/s 745 mmHg 79%
    07:00 +12°C° 0 mm 0 m/s 745 mmHg 74%
    08:00 +13°C° 0 mm 0 m/s 745 mmHg 69%
    09:00 +15°C° 0 mm 0 m/s 744 mmHg 64%
    10:00 +17°C° 0 mm 0 m/s 744 mmHg 59%
    11:00 +17°C° 0 mm 0 m/s 743 mmHg 56%
    12:00 +20°C° 0 mm 1 m/s 743 mmHg 54%
    13:00 +21°C° 0 mm 1 m/s 742 mmHg 51%
    14:00 +20°C° 0 mm 1 m/s 741 mmHg 54%
    15:00 +19°C° 0 mm 2 m/s 741 mmHg 57%
    16:00 +19°C° 0 mm 2 m/s 740 mmHg 60%
    17:00 +18°C° 0 mm 2 m/s 740 mmHg 66%
    18:00 +17°C° 0 mm 2 m/s 739 mmHg 72%
    19:00 +16°C° 0 mm 3 m/s 738 mmHg 78%
    20:00 +14°C° 0 mm 3 m/s 738 mmHg 78%
    21:00 +12°C° 0 mm 3 m/s 738 mmHg 79%
    22:00 +11°C° 0 mm 3 m/s 737 mmHg 80%
    23:00 +11°C° 0 mm 3 m/s 737 mmHg 78%
    Arată mai mult